Flag for U.S.A. Weather past 2 weeks in South Bend, Indiana, U.S.A.

Now
1 °F

Clear.


Feels Like: 1 °F
Forecast: 1 / 24 °F
Wind: No wind

Location: Michiana Regional Airport

Current Time: Mar 6, 2015 at 4:56:50 AM

Latest Report: Mar 6, 2015 at 3:54 AM


Visibility: 10 mi

Pressure: 30.55 "Hg

Humidity: 79%

Dew point: -4 °F

Location of South BendLocation

Historic Weather in South Bend — Graph

°F

South Bend temperature yesterday

Maximum temperature yesterday: 19 °F (at 10:54 AM)
Minimum temperature yesterday: 5 °F (at 10:54 PM)
Average temperature yesterday: 14 °F

Past Weeks' High & Low Weather Summary

 TemperatureHumidityPressure
High36 °F (Mar 3, 4:54 PM)100% (Mar 3, 10:54 PM)30.80 "Hg (Mar 3, 10:54 PM)
Low-8 °F (Feb 20, 3:54 AM)43% (Feb 27, 3:54 PM)29.67 "Hg (Mar 3, 2:54 PM)
Average16 °F69%30.29 "Hg
* Reported Feb 19 3:04 AM — Mar 6 3:54 AM, South Bend, Weather by CustomWeather, © 2015

Note: Actual official high and low records may vary slightly from our data, if they occured in-between our weather recording intervals... More about our weather records

Advertising

South Bend weather history for previous 24 hours

 ConditionsComfort  
Time TempWeatherWind HumidityBarometerVisibility
3:54 AM
Fri, Mar 6
1 °FClear.No wind79%30.55 "Hg10 mi
2:54 AM1 °FClear.5 mph75%30.56 "Hg10 mi
1:54 AM4 °FClear.5 mph73%30.58 "Hg10 mi
12:54 AM5 °FClear.No wind76%30.57 "Hg10 mi
11:54 PM
Thu, Mar 5
7 °FClear.7 mph73%30.57 "Hg10 mi
10:54 PM5 °FClear.No wind72%30.58 "Hg10 mi
9:54 PM8 °FClear.5 mph72%30.58 "Hg10 mi
8:54 PM7 °FClear.No wind70%30.57 "Hg10 mi
7:54 PM12 °FClear.3 mph64%30.56 "Hg10 mi
6:54 PM13 °FClear.3 mph64%30.55 "Hg10 mi
5:54 PM16 °FSunny.13 mph59%30.53 "Hg10 mi
4:54 PM17 °FPartly sunny.17 mph59%30.52 "Hg10 mi
3:54 PM19 °FPassing clouds.15 mph57%30.49 "Hg10 mi
2:54 PM19 °FScattered clouds.18 mph59%30.47 "Hg10 mi
1:59 PM19 °FLight snow. Mostly cloudy.21 mph71%30.43 "Hg1 mi
12:54 PM19 °FLight snow. Partly sunny.No wind62%30.47 "Hg9 mi
11:54 AM18 °FPassing clouds.5 mph59%30.47 "Hg10 mi
11:03 AM19 °FPartly sunny.No wind52%30.41 "Hg10 mi
10:54 AM19 °FBroken clouds.No wind52%30.45 "Hg10 mi
9:54 AM17 °FPartly sunny.No wind56%30.45 "Hg10 mi
8:54 AM14 °FPartly sunny.No wind64%30.43 "Hg10 mi
7:54 AM12 °FSunny.3 mph73%30.41 "Hg10 mi
6:54 AM12 °FPassing clouds.N/A77%30.42 "Hg10 mi
5:54 AM13 °FMostly cloudy.No wind74%30.37 "Hg10 mi
4:54 AM13 °FMostly cloudy.3 mph74%30.37 "Hg9 mi
Weather by CustomWeather, © 2015

See weather overviewHow to use our weather pages